User: anonymous   Login
Location: *
(43.0833°N, 13.0500°E)
Time: 19:32:01
(UTC+00:00)
Language:

Cosmos 1932 - Orbit

View from above orbital plane
View from above orbital plane
View from above satellite
View from above satellite

Ground track
Ground track

The orbit data is extracted from the following two-line orbital elements,

1 18957U 88019A   20023.38193902 -.00000093 +00000-0 -53337-5 0  9998
2 18957 065.0434 011.6603 0058932 293.8364 065.6524 13.79682297606759
Epoch (UTC): 23 January 2020 09:09:59
Eccentricity: 0.0058932
inclination: 65.0434°
perigee height: 922 km
apogee height: 1008 km
right ascension of ascending node: 11.6603°
argument of perigee: 293.8364°
revolutions per day: 13.79682297
mean anomaly at epoch: 65.6524°
orbit number at epoch: 60675

The dashed part of the orbit path shows where the satellite is in the earth's shadow,  

DLR